Weather History for Los Angeles, CA

Change the Weather History Date:

Tuesday, November 12, 2013

  Actual Average Record
Temperature  
Mean Temperature 65 °F 62 °F  
Max Temperature 74 °F 70 °F 94 °F (1974)
Min Temperature 55 °F 54 °F 43 °F (1978)
Degree Days  
Heating Degree Days 0 4  
Month to date heating degree days 6 39  
Since 1 July heating degree days 46 83  
Cooling Degree Days 0 1  
Month to date cooling degree days 20 12  
Year to date cooling degree days 682 543  
Growing Degree Days 14 (Base 50)    
Moisture  
Dew Point 53 °F    
Average Humidity 66    
Maximum Humidity 93    
Minimum Humidity 38    
Precipitation  
Precipitation 0.00 in 0.03 in 2.67 in (1946)
Month to date precipitation 0.00 0.35  
Year to date precipitation 2.66 10.01  
Since 1 July precipitation 0.05 1.20  
Sea Level Pressure  
Sea Level Pressure 30.09 in    
Wind  
Wind Speed 3 mph (West)    
Max Wind Speed 14 mph    
Max Gust Speed 17 mph    
Visibility 10 miles    
Events Fog    
T = Trace of Precipitation, MM = Missing Value Source: NWS Daily Summary

Daily Weather History Graph

Daily Weather History Graph

Search for Another Location

Airport:

Trip Planner

Search our weather history database for the weather conditions in past years. The results will help you decide how hot, cold, wet, or windy it might be!

Date:

Astronomy

Nov. 12, 2013 Rise Set
Actual Time 6:23 AM PST 4:51 PM PST
Civil Twilight 5:56 AM PST 5:18 PM PST
Nautical Twilight 5:26 AM PST 5:48 PM PST
Astronomical Twilight 4:57 AM PST 6:17 PM PST
Moon 1:57 PM PST (11/12) 1:31 AM PST (11/12)
Length of Visible Light 11h 21m
Length of Day
10h 28m
Waxing Gibbous, 77% of the Moon is Illuminated
Nov 12
Waxing Gibbous
Nov 17
Full
Nov 25
Last Quarter
Dec 2
New
Dec 9
First Quarter

Hourly Weather History & Observations

Time (PST) Temp. Dew Point Humidity Pressure Visibility Wind Dir Wind Speed Gust Speed Precip Events Conditions
12:53 AM 57.9 °F 55.9 °F 93% 30.10 in 10.0 mi ESE 3.5 mph - N/A Fog Patches of Fog
1:53 AM 57.9 °F 55.0 °F 90% 30.09 in 9.0 mi ESE 4.6 mph - N/A Fog Patches of Fog
2:53 AM 57.0 °F 54.0 °F 89% 30.10 in 10.0 mi Calm Calm - N/A   Mostly Cloudy
3:53 AM 59.0 °F 52.0 °F 78% 30.09 in 10.0 mi NW 3.5 mph - N/A   Mostly Cloudy
4:53 AM 57.0 °F 51.8 °F 83% 30.09 in 10.0 mi Calm Calm - N/A   Mostly Cloudy
5:53 AM 57.9 °F 51.8 °F 80% 30.13 in 10.0 mi West 10.4 mph - N/A   Mostly Cloudy
6:53 AM 62.1 °F 57.0 °F 84% 30.14 in 10.0 mi WNW 3.5 mph - N/A Fog Shallow Fog
7:53 AM 63.0 °F 55.9 °F 78% 30.15 in 10.0 mi WNW 4.6 mph - N/A Fog Shallow Fog
8:53 AM 66.9 °F 53.1 °F 61% 30.16 in 10.0 mi Calm Calm - N/A   Mostly Cloudy
9:53 AM 70.0 °F 50.0 °F 49% 30.15 in 10.0 mi Calm Calm - N/A   Mostly Cloudy
10:53 AM 70.7 °F 50.0 °F 48% 30.14 in 10.0 mi Calm Calm - N/A   Mostly Cloudy
11:53 AM 72.0 °F 51.1 °F 48% 30.11 in 10.0 mi WSW 4.6 mph - N/A   Mostly Cloudy
12:53 PM 73.0 °F 52.0 °F 48% 30.08 in 10.0 mi West 5.8 mph - N/A   Mostly Cloudy
1:53 PM 73.0 °F 46.0 °F 38% 30.07 in 10.0 mi WNW 4.6 mph - N/A   Mostly Cloudy
2:53 PM 69.1 °F 48.9 °F 49% 30.08 in 10.0 mi West 12.7 mph - N/A   Mostly Cloudy
3:53 PM 69.1 °F 48.9 °F 49% 30.07 in 10.0 mi West 4.6 mph - N/A   Mostly Cloudy
4:53 PM 66.0 °F 57.0 °F 73% 30.06 in 10.0 mi WSW 4.6 mph - N/A   Scattered Clouds
5:53 PM 66.0 °F 57.0 °F 73% 30.06 in 10.0 mi Calm Calm - N/A   Partly Cloudy
6:53 PM 64.9 °F 57.0 °F 75% 30.06 in 10.0 mi Calm Calm - N/A   Partly Cloudy
7:53 PM 64.9 °F 55.9 °F 73% 30.06 in 10.0 mi Calm Calm - N/A   Partly Cloudy
8:53 PM 64.9 °F 55.0 °F 70% 30.07 in 10.0 mi Calm Calm - N/A   Partly Cloudy
9:53 PM 64.0 °F 54.0 °F 70% 30.06 in 10.0 mi Calm Calm - N/A   Partly Cloudy
10:53 PM 62.1 °F 54.0 °F 75% 30.06 in 10.0 mi Calm Calm - N/A   Clear
11:53 PM 63.0 °F 48.9 °F 60% 30.05 in 10.0 mi Calm Calm - N/A   Clear